sat.trackr.live / text

‹ back to catalog

STARLINK-3360

NORAD 51149 · 2022-005AX

PAYLOAD ACTIVE UNKNOWN

§ Identity

Operator
Country
US
Launch date
2022-01-19
Launch site
AFETR
Launch vehicle
Mass (kg)
RCS (m²)

Purposes: comms

External: N2YO · Heavens-Above · Gunter

§ Orbital elements

Epoch: 2026-09-20T04:29:33.700704Z

Period
93.85 min
Inclination
53.1591°
Eccentricity
0.0001317
Mean motion
15.34387045 rev/d
Perigee alt
461.8 km
Apogee alt
463.6 km
Semi-major
6,840.9 km
B*
1.3782e-5
RAAN
138.8234°
Arg perigee
89.8903°
Mean anomaly
270.2250°
Rev number
25,819

§ Raw data

STARLINK-33601 51149U 22005AX  26263.18719561  .00000089  00000+0  13782-4 0  99972 51149  53.1591 138.8234 0001317  89.8903 270.2250 15.34387045258197

JSON: /api/v1/satellites/51149 · /tle

For live sub-satellite position, see the globe view (requires WebGL).

§ Visibility from observer

Set your observer location to see the next 7 days of passes ≥ 10°. The values pass through the URL so the page stays shareable.

No JS? Fill the form by hand. The geolocation button needs JavaScript.